GEDB EGHH-EGHH

Flight info

Callsign GEDB
Flight time 0h 3m
Altitude
Route
Aircraft C152

Departure

Time 2026-05-05 19:55
Airport Bournemouth Airport (EGHH)

Arrival

Time 2026-05-05 19:58
Airport Bournemouth Airport (EGHH)
Time Latitude Longitude Altitude Speed Heading
2026-05-05 19:38 50.78471 -1.83054 35 ft 0 kts 158°
2026-05-05 19:43 50.78440 -1.83069 35 ft 9 kts 227°
2026-05-05 19:43 50.78400 -1.83127 35 ft 3 kts 226°
2026-05-05 19:44 50.78378 -1.83180 35 ft 8 kts 247°
2026-05-05 19:44 50.78362 -1.83282 35 ft 8 kts 263°
2026-05-05 19:44 50.78361 -1.83396 35 ft 9 kts 277°
2026-05-05 19:44 50.78389 -1.83520 33 ft 11 kts 282°
2026-05-05 19:45 50.78411 -1.83657 32 ft 11 kts 283°
2026-05-05 19:45 50.78433 -1.83793 32 ft 10 kts 284°
2026-05-05 19:45 50.78454 -1.83924 32 ft 10 kts 285°
2026-05-05 19:45 50.78474 -1.84051 32 ft 9 kts 279°
2026-05-05 19:46 50.78474 -1.84082 32 ft 4 kts 221°
2026-05-05 19:46 50.78426 -1.84164 32 ft 14 kts 232°
2026-05-05 19:46 50.78358 -1.84316 35 ft 15 kts 241°
2026-05-05 19:46 50.78301 -1.84500 35 ft 14 kts 238°
2026-05-05 19:47 50.78246 -1.84604 35 ft 7 kts 217°
2026-05-05 19:47 50.78209 -1.84646 35 ft 7 kts 213°
2026-05-05 19:47 50.78146 -1.84723 35 ft 10 kts 245°
2026-05-05 19:47 50.78128 -1.84857 35 ft 10 kts 251°
2026-05-05 19:48 50.78053 -1.84939 35 ft 10 kts 200°
2026-05-05 19:48 50.77999 -1.84970 35 ft 3 kts 200°
2026-05-05 19:48 50.77993 -1.84973 35 ft 0 kts 195°
2026-05-05 19:49 50.77988 -1.84975 35 ft 0 kts 191°
2026-05-05 19:50 50.77985 -1.84976 35 ft 0 kts 187°
2026-05-05 19:54 50.77935 -1.84997 35 ft 20 kts 188°
2026-05-05 19:54 50.77941 -1.84737 35 ft 43 kts 75°
2026-05-05 19:54 50.78047 -1.84022 130 ft 59 kts 72°
2026-05-05 19:54 50.78147 -1.83251 237 ft 60 kts 72°
2026-05-05 19:55 50.78278 -1.82533 299 ft 56 kts 69°
2026-05-05 19:55 50.78556 -1.82147 441 ft 51 kts
2026-05-05 19:55 50.78957 -1.82115 569 ft 53 kts 356°
2026-05-05 19:55 50.79099 -1.82621 639 ft 75 kts 249°
2026-05-05 19:56 50.78879 -1.83403 804 ft 72 kts 251°
2026-05-05 19:56 50.78704 -1.84276 940 ft 73 kts 260°
2026-05-05 19:56 50.78574 -1.85217 1031 ft 80 kts 265°
2026-05-05 19:56 50.78474 -1.86200 1059 ft 79 kts 269°
2026-05-05 19:57 50.78367 -1.87152 1030 ft 79 kts 267°
2026-05-05 19:57 50.78268 -1.87777 922 ft 80 kts 254°
2026-05-05 19:57 50.77602 -1.88454 726 ft 73 kts 174°
2026-05-05 19:57 50.77303 -1.87990 651 ft 61 kts 64°
2026-05-05 19:58 50.77531 -1.87220 489 ft 70 kts 71°
2026-05-05 19:58 50.77650 -1.86466 331 ft 61 kts 72°
2026-05-05 19:58 50.77758 -1.85746 153 ft 57 kts 70°
2026-05-05 19:58 50.77868 -1.85103 39 ft 48 kts 69°
2026-05-05 19:59 50.77965 -1.84532 36 ft 56 kts 72°
2026-05-05 19:59 50.78059 -1.83916 157 ft 51 kts 60°
2026-05-05 19:59 50.78210 -1.83203 223 ft 65 kts 63°
2026-05-05 19:59 50.78413 -1.82443 402 ft 61 kts 55°
2026-05-05 20:00 50.78551 -1.81681 545 ft 62 kts 60°
2026-05-05 20:00 50.78962 -1.81476 657 ft 65 kts 355°
2026-05-05 20:00 50.79227 -1.82080 802 ft 78 kts 266°
2026-05-05 20:00 50.79081 -1.83139 852 ft 91 kts 264°
2026-05-05 20:01 50.78959 -1.84272 947 ft 94 kts 260°
2026-05-05 20:01 50.78835 -1.85496 890 ft 101 kts 267°
2026-05-05 20:01 50.78756 -1.86621 797 ft 81 kts 269°
2026-05-05 20:01 50.78586 -1.87561 667 ft 79 kts 240°
2026-05-05 20:02 50.78062 -1.88090 532 ft 76 kts 181°
2026-05-05 20:02 50.77539 -1.87868 479 ft 69 kts 137°
2026-05-05 20:02 50.77479 -1.87190 455 ft 59 kts 57°
2026-05-05 20:02 50.77622 -1.86509 310 ft 63 kts 72°
2026-05-05 20:03 50.77751 -1.85799 164 ft 57 kts 65°
2026-05-05 20:03 50.77860 -1.85137 40 ft 47 kts 67°
2026-05-05 20:03 50.77932 -1.84728 35 ft 24 kts 75°
2026-05-05 20:03 50.77922 -1.84479 35 ft 20 kts 171°
2026-05-05 20:04 50.77862 -1.84341 35 ft 9 kts 121°
2026-05-05 20:04 50.77834 -1.84266 34 ft 4 kts 121°
2026-05-05 20:04 50.77825 -1.84246 34 ft 1 kts 121°
2026-05-05 20:04 50.77791 -1.84138 32 ft 14 kts 110°
2026-05-05 20:05 50.77802 -1.84083 32 ft 0 kts 26°